Tacoma Narrows, WA
on Tuesday, January 22, 2013

Tuesday
Previous Day Next Day
Daily Summary
 ActualAverageRecord
Temperature
Mean Temperature °F / °C °F / °C  
Max Temperature 39°F / 4°C 45°F / 7°C 52°F / 11°C (2003)
Min Temperature 32°F / 0°C 37°F / 2°C 26°F / -3°C (2008)
Degree Days
Heating Degree Days 30    
Moisture
Dew Point 32°F / 0°C   
Average Humidity 90    
Maximum Humidity 96    
Minimum Humidity 79    
Precipitation
Precipitation 0.00 in / 0.00 cm in / cm in / cm ()
Wind
Wind Speed 0 mph / 0 km/h   
Max Wind Speed 4 mph / 6 km/h   
Max Gust Speed mph / km/h   
Visibility 3 miles / 5 kilometers   
Events Fog   
Averages and records for this station are not official NWS values.
Key: T is trace of precipitation, MM is missing value
Source: NWS Daily Summary
Seasonal Weather Averages
Time(PST)TemperatureDew PointHumidity Pressure Visibility Wind DirectionWind SpeedGust SpeedPrecipitationEvents Conditions
12:00 AM 33.8°F / 1.0°C 30.2°F / -1.0°C 87% 30.13 in / 1020.2 hPa 2.5 miles / 4.0 kilometers Calm Calm - N/A   Overcast
12:17 AM 33.8°F / 1.0°C 30.2°F / -1.0°C 87% 30.13 in / 1020.2 hPa 4.0 miles / 6.4 kilometers Calm Calm - N/A   Overcast
12:53 AM 33.1°F / 0.6°C 30.9°F / -0.6°C 92% 30.15 in / 1021.0 hPa 4.0 miles / 6.4 kilometers Calm Calm - N/A   Overcast
1:30 AM 33.8°F / 1.0°C 32.0°F / 0.0°C 93% 30.13 in / 1020.2 hPa 2.5 miles / 4.0 kilometers Calm Calm - N/A   Overcast
1:53 AM 33.1°F / 0.6°C 30.9°F / -0.6°C 92% 30.14 in / 1020.5 hPa 4.0 miles / 6.4 kilometers Calm Calm - N/A   Overcast
2:53 AM 33.1°F / 0.6°C 30.9°F / -0.6°C 92% 30.14 in / 1020.5 hPa 5.0 miles / 8.0 kilometers Calm Calm - N/A   Overcast
3:53 AM 33.1°F / 0.6°C 30.9°F / -0.6°C 92% 30.13 in / 1020.3 hPa 4.0 miles / 6.4 kilometers Calm Calm - N/A   Overcast
3:59 AM 32.0°F / 0.0°C 30.2°F / -1.0°C 93% 30.12 in / 1019.9 hPa 1.8 miles / 2.8 kilometers Calm Calm - N/A   Overcast
4:14 AM 33.8°F / 1.0°C 30.2°F / -1.0°C 87% 30.11 in / 1019.5 hPa 3.0 miles / 4.8 kilometers Calm Calm - N/A   Overcast
4:28 AM 33.8°F / 1.0°C 30.2°F / -1.0°C 87% 30.10 in / 1019.2 hPa 1.8 miles / 2.8 kilometers Calm Calm - N/A   Overcast
4:38 AM 33.8°F / 1.0°C 30.2°F / -1.0°C 87% 30.10 in / 1019.2 hPa 0.5 miles / 0.8 kilometers NE 3.5 mph / 5.6 km/h - N/A Fog Fog
4:48 AM 33.8°F / 1.0°C 30.2°F / -1.0°C 87% 30.10 in / 1019.2 hPa 0.2 miles / 0.4 kilometers Calm Calm - N/A Fog Fog
4:53 AM 32.0°F / 0.0°C 30.9°F / -0.6°C 96% 30.11 in / 1019.6 hPa 0.2 miles / 0.4 kilometers NE 3.5 mph / 5.6 km/h - N/A Fog Fog
5:53 AM 32.0°F / 0.0°C 30.0°F / -1.1°C 92% 30.11 in / 1019.4 hPa 0.2 miles / 0.4 kilometers Calm Calm - N/A Fog Fog
6:53 AM 32.0°F / 0.0°C 30.9°F / -0.6°C 96% 30.10 in / 1019.2 hPa 0.2 miles / 0.4 kilometers Calm Calm - N/A Fog Fog
7:53 AM 33.1°F / 0.6°C 30.9°F / -0.6°C 92% 30.09 in / 1018.9 hPa 0.2 miles / 0.4 kilometers Calm Calm - N/A Fog Fog
8:53 AM 33.1°F / 0.6°C 32.0°F / 0.0°C 96% 30.09 in / 1018.7 hPa 0.2 miles / 0.4 kilometers Calm Calm - N/A Fog Fog
9:46 AM 33.8°F / 1.0°C 32.0°F / 0.0°C 93% 30.07 in / 1018.2 hPa 0.2 miles / 0.4 kilometers Calm Calm - N/A Fog Fog
9:53 AM 34.0°F / 1.1°C 32.0°F / 0.0°C 92% 30.09 in / 1018.8 hPa 0.2 miles / 0.4 kilometers Calm Calm - N/A Fog Fog
10:32 AM 33.8°F / 1.0°C 32.0°F / 0.0°C 93% 30.07 in / 1018.2 hPa 1.0 miles / 1.6 kilometers Calm Calm - N/A   Mist
10:53 AM 34.0°F / 1.1°C 32.0°F / 0.0°C 92% 30.09 in / 1018.7 hPa 0.8 miles / 1.2 kilometers Calm Calm - N/A   Overcast
11:53 AM 35.1°F / 1.7°C 32.0°F / 0.0°C 89% 30.07 in / 1018.2 hPa 0.8 miles / 1.2 kilometers WSW 3.5 mph / 5.6 km/h - N/A   Overcast
12:00 PM 33.8°F / 1.0°C 32.0°F / 0.0°C 93% 30.05 in / 1017.5 hPa 2.5 miles / 4.0 kilometers Calm Calm - N/A   Overcast
12:53 PM 36.0°F / 2.2°C 32.0°F / 0.0°C 86% 30.05 in / 1017.6 hPa 2.5 miles / 4.0 kilometers Calm Calm - N/A   Mostly Cloudy
12:58 PM 35.6°F / 2.0°C 32.0°F / 0.0°C 87% 30.04 in / 1017.2 hPa 8.0 miles / 12.9 kilometers Calm Calm - N/A   Scattered Clouds
1:53 PM 37.0°F / 2.8°C 33.1°F / 0.6°C 86% 30.02 in / 1016.4 hPa 7.0 miles / 11.3 kilometers Calm Calm - N/A   Scattered Clouds
2:53 PM 37.9°F / 3.3°C 33.1°F / 0.6°C 83% 30.01 in / 1016.1 hPa 8.0 miles / 12.9 kilometers Calm Calm - N/A   Scattered Clouds
3:53 PM 37.9°F / 3.3°C 34.0°F / 1.1°C 86% 29.99 in / 1015.4 hPa 6.0 miles / 9.7 kilometers Calm Calm - N/A   Scattered Clouds
4:53 PM 37.9°F / 3.3°C 34.0°F / 1.1°C 86% 29.99 in / 1015.3 hPa 5.0 miles / 8.0 kilometers Calm Calm - N/A   Partly Cloudy
5:53 PM 37.9°F / 3.3°C 34.0°F / 1.1°C 86% 29.98 in / 1015.0 hPa 7.0 miles / 11.3 kilometers Calm Calm - N/A   Clear
6:53 PM 37.0°F / 2.8°C 34.0°F / 1.1°C 89% 29.96 in / 1014.3 hPa 7.0 miles / 11.3 kilometers Calm Calm - N/A   Clear
7:53 PM 37.0°F / 2.8°C 34.0°F / 1.1°C 89% 29.94 in / 1013.7 hPa 7.0 miles / 11.3 kilometers Calm Calm - N/A   Clear
8:53 PM 37.9°F / 3.3°C 35.1°F / 1.7°C 89% 29.94 in / 1013.9 hPa 5.0 miles / 8.0 kilometers West 3.5 mph / 5.6 km/h - N/A   Clear
9:53 PM 37.9°F / 3.3°C 35.1°F / 1.7°C 89% 29.93 in / 1013.5 hPa 6.0 miles / 9.7 kilometers Calm Calm - N/A   Overcast
10:53 PM 37.9°F / 3.3°C 35.1°F / 1.7°C 89% 29.94 in / 1013.6 hPa 5.0 miles / 8.0 kilometers South 3.5 mph / 5.6 km/h - N/A   Mostly Cloudy
11:53 PM 39.0°F / 3.9°C 33.1°F / 0.6°C 79% 29.94 in / 1013.7 hPa 10.0 miles / 16.1 kilometers Calm Calm - N/A   Mostly Cloudy
Moon Phase
Jan. 22 Jan. 26 Feb. 03 Feb. 10 Feb. 17
Sunrise:07:46 AM (PST) Moon Rise:01:21 PM (PST)1/22
Sunset:04:57 PM (PST) Moon Set:04:15 AM (PST)1/22

Copyright © 2014 The Weather Underground, Inc.